Location: Clarion
(42.7316°N, 93.7330°W)
Time: 08:54:57
(UTC+00:00)

Cosmos 1812 Rocket - Pass Details

Date: 22 April 2026
Orbit: 600 x 623 km, 82.5° (Epoch: 17 May)

Event Time Altitude Azimuth Distance (km) Brightness Sun altitude
Exits shadow 08:17:36 44° 65° (ENE) 843 4.5 -28.1°
Drops below altitude 10° 08:21:09 10° 20° (NNE) 1,963 7.0 -27.7°
Sets 08:23:25 0° 14° (NNE) 2,875 8.0 -27.5°
